Weather History for KTVR - July, 2013

Change the Weather History Date:

Thursday, July 25, 2013

  Actual Average Record
Temperature  
Mean Temperature 79 °F 82 °F  
Max Temperature 90 °F 92 °F 101 °F (1952)
Min Temperature 68 °F 71 °F 63 °F (2009)
Degree Days  
Heating Degree Days 0 0  
Month to date heating degree days 0 0  
Since 1 June heating degree days 0 0  
Since 1 July heating degree days 0 0  
Cooling Degree Days 14 17  
Month to date cooling degree days 360 411  
Year to date cooling degree days 1131 1199  
Since 1 June cooling degree days 801 829  
Growing Degree Days 28 (Base 50)    
Moisture  
Dew Point 69 °F    
Average Humidity 74    
Maximum Humidity 100    
Minimum Humidity 47    
Precipitation  
Precipitation 0.00 in 0.11 in 2.12 in (1971)
Month to date precipitation 3.50 2.97  
Year to date precipitation 44.15 32.26  
Sea Level Pressure  
Sea Level Pressure 30.01 in    
Wind  
Wind Speed 4 mph (NNE)    
Max Wind Speed 12 mph    
Max Gust Speed 16 mph    
Visibility 6 miles    
Events Fog    
T = Trace of Precipitation, MM = Missing Value Source: NWS Daily Summary

Daily Weather History Graph

Daily Weather History Graph

Search for Another Location

Airport or City:

Trip Planner

Search our weather history database for the weather conditions in past years. The results will help you decide how hot, cold, wet, or windy it might be!

Date:

Astronomy

Jul. 25, 2013 Rise Set
Actual Time 6:14 AM CDT 8:06 PM CDT
Civil Twilight 5:47 AM CDT 8:33 PM CDT
Nautical Twilight 5:14 AM CDT 9:06 PM CDT
Astronomical Twilight 4:39 AM CDT 9:41 PM CDT
Moon 10:04 PM CDT (7/25) 9:28 AM CDT (7/25)
Length of Visible Light 14h 46m
Length of Day
13h 52m
Waning Gibbous, 88% of the Moon is Illuminated
Jul 25
Waning Gibbous
Jul 29
Last Quarter
Aug 6
New
Aug 14
First Quarter
Aug 20
Full

Hourly Weather History & Observations

Time (CDT) Temp. Heat Index Dew Point Humidity Pressure Visibility Wind Dir Wind Speed Gust Speed Precip Events Conditions
12:53 AM 73.9 °F - 72.0 °F 93% 29.96 in 10.0 mi Calm Calm - N/A   Clear
1:53 AM 72.0 °F - 71.1 °F 97% 29.95 in 7.0 mi NW 3.5 mph - N/A   Clear
2:53 AM 72.0 °F - 71.1 °F 97% 29.95 in 4.0 mi NW 3.5 mph - N/A   Clear
3:16 AM 71.6 °F - 69.8 °F 94% 29.93 in 1.8 mi Calm Calm - N/A   Clear
3:29 AM 71.6 °F - 69.8 °F 94% 29.93 in 3.0 mi Calm Calm - N/A   Clear
3:53 AM 71.1 °F - 69.1 °F 93% 29.96 in 3.0 mi Calm Calm - N/A   Clear
4:02 AM 69.8 °F - 69.8 °F 100% 29.94 in 2.0 mi Calm Calm - N/A   Clear
4:09 AM 69.8 °F - 69.8 °F 100% 29.95 in 1.0 mi Calm Calm - N/A   Clear
4:18 AM 69.8 °F - 68.0 °F 94% 29.95 in 3.0 mi Calm Calm - N/A   Clear
4:37 AM 69.8 °F - 68.0 °F 94% 29.95 in 1.8 mi Calm Calm - N/A   Clear
4:53 AM 70.0 °F - 68.0 °F 93% 29.98 in 1.2 mi Calm Calm - N/A   Clear
5:04 AM 69.8 °F - 66.2 °F 88% 29.96 in 0.5 mi Calm Calm - 0.01 in Fog Fog
5:14 AM 68.0 °F - 66.2 °F 94% 29.97 in 2.0 mi Calm Calm - 0.01 in   Clear
5:28 AM 69.8 °F - 68.0 °F 94% 29.97 in 4.0 mi Calm Calm - 0.01 in   Clear
5:53 AM 69.1 °F - 66.9 °F 93% 30.00 in 4.0 mi Calm Calm - 0.01 in   Clear
5:58 AM 69.8 °F - 68.0 °F 94% 29.98 in 1.8 mi Calm Calm - N/A   Clear
6:07 AM 69.8 °F - 68.0 °F 94% 29.99 in 0.5 mi Calm Calm - N/A Fog Fog
6:53 AM 70.0 °F - 69.1 °F 97% 30.02 in 0.2 mi Calm Calm - N/A Fog Fog
7:11 AM 71.6 °F - 69.8 °F 94% 30.00 in 1.8 mi Calm Calm - N/A   Mostly Cloudy
7:18 AM 71.6 °F - 69.8 °F 94% 30.01 in 3.0 mi Calm Calm - N/A   Mostly Cloudy
7:53 AM 75.0 °F - 73.0 °F 94% 30.03 in 5.0 mi Calm Calm - N/A   Overcast
8:53 AM 78.1 °F - 73.9 °F 87% 30.04 in 10.0 mi NNE 5.8 mph - N/A   Mostly Cloudy
9:06 AM 77.0 °F - 73.4 °F 89% 30.02 in 10.0 mi NE 4.6 mph - N/A   Scattered Clouds
9:53 AM 80.1 °F 84.5 °F 73.9 °F 81% 30.05 in 10.0 mi Variable 4.6 mph - N/A   Partly Cloudy
10:07 AM 82.4 °F 88.2 °F 73.4 °F 74% 30.04 in 10.0 mi Variable 3.5 mph - N/A   Mostly Cloudy
10:42 AM 82.4 °F 88.2 °F 73.4 °F 74% 30.06 in 10.0 mi NNE 3.5 mph - N/A   Scattered Clouds
10:53 AM 82.9 °F 88.8 °F 73.0 °F 72% 30.07 in 10.0 mi East 6.9 mph - N/A   Partly Cloudy
11:53 AM 84.9 °F 90.7 °F 72.0 °F 65% 30.08 in 10.0 mi Variable 3.5 mph - N/A   Clear
12:53 PM 87.1 °F 92.8 °F 71.1 °F 59% 30.08 in 10.0 mi NNE 5.8 mph - N/A   Scattered Clouds
1:53 PM 89.1 °F 94.1 °F 70.0 °F 53% 30.07 in 10.0 mi NNE 5.8 mph - N/A   Partly Cloudy
2:53 PM 89.1 °F 91.3 °F 66.0 °F 46% 30.07 in 10.0 mi North 5.8 mph - N/A   Clear
3:53 PM 89.1 °F 91.3 °F 66.0 °F 46% 30.06 in 10.0 mi NNE 9.2 mph - N/A   Clear
4:53 PM 89.1 °F 91.3 °F 66.0 °F 46% 30.06 in 10.0 mi NNE 8.1 mph - N/A   Clear
5:53 PM 88.0 °F 90.3 °F 66.0 °F 48% 30.05 in 10.0 mi NNE 8.1 mph - N/A   Partly Cloudy
6:53 PM 82.9 °F 86.5 °F 69.1 °F 63% 30.05 in 10.0 mi NW 4.6 mph - N/A   Clear
7:16 PM 82.4 °F 85.4 °F 68.0 °F 62% 30.04 in 10.0 mi NNW 3.5 mph - N/A   Partly Cloudy
7:53 PM 79.0 °F - 68.0 °F 69% 30.06 in 10.0 mi Calm Calm - N/A   Clear
8:53 PM 71.1 °F - 68.0 °F 90% 30.04 in 10.0 mi Calm Calm - N/A   Clear
9:53 PM 70.0 °F - 68.0 °F 93% 30.06 in 10.0 mi North 3.5 mph - N/A   Clear
10:53 PM 73.9 °F - 66.9 °F 79% 30.06 in 10.0 mi NE 5.8 mph - N/A   Clear
11:53 PM 71.1 °F - 66.9 °F 87% 30.07 in 10.0 mi Calm Calm - N/A   Clear